Medford, WI

4:47 PM CDT on July 20, 2017 (GMT -0500)
Taylor County

Weather History for KMDZ - April, 2014

Change the Weather History Date:

Tuesday, April 29, 2014

  Actual Average Record
Temperature  
Mean Temperature 34 °F -  
Max Temperature 37 °F 60 °F 89 °F (1952)
Min Temperature 32 °F 36 °F 16 °F (1958)
Degree Days  
Heating Degree Days 30    
Moisture  
Dew Point 35 °F    
Average Humidity 94    
Maximum Humidity 99    
Minimum Humidity 84    
Precipitation  
Precipitation 0.32 in - - ()
Sea Level Pressure  
Sea Level Pressure 29.63 in    
Wind  
Wind Speed 15 mph (NE)    
Max Wind Speed 26 mph    
Max Gust Speed 32 mph    
Visibility 7 miles    
Events Rain , Snow    
Averages and records for this station are not official NWS values.
T = Trace of Precipitation, MM = Missing Value Source: NWS Daily Summary

Daily Weather History Graph

Daily Weather History Graph

Search for Another Location

Airport or City:

Trip Planner

Search our weather history database for the weather conditions in past years. The results will help you decide how hot, cold, wet, or windy it might be!

Date:

Astronomy

Apr. 29, 2014 Rise Set
Actual Time 5:53 AM CDT 8:04 PM CDT
Civil Twilight 5:21 AM CDT 8:36 PM CDT
Nautical Twilight 4:41 AM CDT 9:16 PM CDT
Astronomical Twilight 3:57 AM CDT 10:01 PM CDT
Moon 6:11 AM CDT (4/29) 8:45 PM CDT (4/29)
Length of Visible Light 15h 15m
Length of Day
14h 11m
New Moon, 0% of the Moon is Illuminated
Apr 29
New Moon
May 6
First Quarter
May 14
Full
May 21
Last Quarter
May 28
New

Hourly Weather History & Observations

Time (CDT) Temp. Windchill Dew Point Humidity Pressure Visibility Wind Dir Wind Speed Gust Speed Precip Events Conditions
12:15 AM 37.6 °F 27.4 °F 33.3 °F 84% 29.74 in 10.0 mi East 19.6 mph 28.8 mph N/A   Overcast
12:35 AM 37.9 °F 28.2 °F 33.4 °F 84% 29.73 in 10.0 mi East 18.4 mph 29.9 mph N/A   Overcast
12:55 AM 37.9 °F 27.6 °F 34.5 °F 87% 29.73 in 7.0 mi East 20.7 mph 28.8 mph N/A Rain Light Rain
1:15 AM 37.4 °F 26.6 °F 35.1 °F 91% 29.71 in 4.0 mi East 21.9 mph 31.1 mph 0.02 in Rain Light Rain
1:35 AM 37.4 °F 25.6 °F 35.1 °F 91% 29.70 in 5.0 mi ENE 26.5 mph 32.2 mph 0.02 in Rain Light Rain
1:55 AM 37.4 °F 27.2 °F 35.1 °F 91% 29.69 in 7.0 mi ENE 19.6 mph 31.1 mph 0.04 in Rain Light Rain
2:15 AM 37.4 °F 27.8 °F 35.2 °F 92% 29.69 in 10.0 mi ENE 17.3 mph 26.5 mph 0.01 in Rain Light Rain
2:35 AM 37.4 °F 27.8 °F 35.1 °F 91% 29.68 in 10.0 mi ENE 17.3 mph 27.6 mph 0.01 in   Overcast
2:55 AM 37.6 °F 27.1 °F 34.9 °F 90% 29.67 in 10.0 mi ENE 20.7 mph 26.5 mph 0.01 in   Overcast
3:15 AM 37.6 °F 28.1 °F 34.9 °F 90% 29.67 in 10.0 mi ENE 17.3 mph 29.9 mph N/A   Overcast
3:35 AM 37.8 °F 28.3 °F 35.1 °F 90% 29.66 in 10.0 mi ENE 17.3 mph 27.6 mph N/A   Overcast
3:55 AM 37.8 °F 28.3 °F 35.2 °F 91% 29.65 in 10.0 mi ENE 17.3 mph 24.2 mph N/A   Overcast
4:15 AM 37.8 °F 28.6 °F 35.2 °F 91% 29.64 in 10.0 mi ENE 16.1 mph 25.3 mph N/A   Overcast
4:35 AM 37.8 °F 28.3 °F 35.2 °F 91% 29.64 in 10.0 mi ENE 17.3 mph 25.3 mph N/A   Overcast
4:55 AM 37.8 °F 27.4 °F 35.6 °F 92% 29.63 in 7.0 mi ENE 20.7 mph 25.3 mph N/A   Overcast
5:15 AM 37.8 °F 28.3 °F 35.6 °F 92% 29.63 in 10.0 mi ENE 17.3 mph 27.6 mph N/A Rain Light Rain
5:35 AM 37.8 °F 29.4 °F 35.6 °F 92% 29.62 in 10.0 mi ENE 13.8 mph 23.0 mph N/A Rain Light Rain
5:55 AM 37.0 °F 27.7 °F 35.6 °F 95% 29.62 in 7.0 mi ENE 16.1 mph 21.9 mph 0.01 in Rain Light Rain
6:15 AM 37.4 °F 28.9 °F 35.6 °F 93% 29.62 in 10.0 mi ENE 13.8 mph 21.9 mph N/A Rain Light Rain
6:35 AM 37.4 °F 27.8 °F 35.2 °F 92% 29.62 in 10.0 mi ENE 17.3 mph 24.2 mph 0.01 in Rain Light Rain
6:55 AM 36.7 °F 26.9 °F 34.7 °F 93% 29.62 in 7.0 mi NE 17.3 mph 21.9 mph 0.04 in Rain Rain
7:15 AM 35.8 °F 26.9 °F 34.0 °F 93% 29.62 in 5.0 mi NE 13.8 mph 18.4 mph 0.01 in Rain Rain
7:35 AM 34.5 °F 26.7 °F 33.1 °F 94% 29.62 in 4.0 mi NE 10.4 mph 19.6 mph 0.05 in Rain Rain
7:55 AM 32.9 °F 25.3 °F 32.0 °F 96% 29.62 in 2.0 mi NE 9.2 mph - 0.08 in Rain Heavy Rain
8:15 AM 32.2 °F 25.0 °F 32.0 °F 99% 29.62 in 1.2 mi NE 8.1 mph - 0.02 in Rain Heavy Rain
8:35 AM 32.4 °F 24.0 °F 32.0 °F 99% 29.61 in 2.0 mi NE 10.4 mph - 0.03 in Snow Light Snow
8:55 AM 32.4 °F 23.5 °F 32.0 °F 99% 29.60 in 2.5 mi NNE 11.5 mph - 0.04 in Snow Light Snow
9:15 AM 32.4 °F 23.0 °F 32.0 °F 99% 29.60 in 3.0 mi NE 12.7 mph - 0.01 in   Overcast
9:35 AM 32.9 °F 24.1 °F 32.0 °F 96% 29.60 in 5.0 mi NE 11.5 mph 17.3 mph 0.01 in Snow Light Snow
9:55 AM 33.1 °F 24.4 °F 32.0 °F 96% 29.60 in 7.0 mi NE 11.5 mph 16.1 mph 0.01 in Rain Light Rain
10:15 AM 33.1 °F 24.4 °F 32.0 °F 96% 29.60 in 2.0 mi NE 11.5 mph - 0.01 in Rain Heavy Rain
10:35 AM 32.4 °F 24.6 °F 32.0 °F 99% 29.60 in 1.2 mi NE 9.2 mph - 0.03 in Snow Light Snow
10:55 AM 33.3 °F 23.7 °F 32.4 °F 96% 29.59 in 4.0 mi NE 13.8 mph - 0.03 in Rain Light Rain
11:15 AM 34.7 °F 24.7 °F 33.3 °F 94% 29.58 in 7.0 mi NE 16.1 mph - N/A Rain Light Rain
11:35 AM 35.8 °F 26.5 °F 34.2 °F 94% 29.58 in 10.0 mi NE 15.0 mph - N/A   Overcast
11:55 AM 36.3 °F 28.0 °F 34.3 °F 93% 29.58 in 10.0 mi NE 12.7 mph 18.4 mph N/A   Overcast
12:15 PM 36.1 °F 27.3 °F 34.0 °F 92% 29.59 in 10.0 mi NE 13.8 mph 20.7 mph N/A   Overcast
12:35 PM 36.0 °F 27.1 °F 34.2 °F 93% 29.58 in 10.0 mi NE 13.8 mph 18.4 mph N/A   Overcast
1:15 PM 36.3 °F 28.4 °F 35.1 °F 95% 29.58 in 2.5 mi NE 11.5 mph 16.1 mph N/A Rain Rain
1:35 PM 36.7 °F 28.9 °F 35.6 °F 96% 29.58 in 2.5 mi NE 11.5 mph - N/A   Drizzle
1:55 PM 36.9 °F 28.7 °F 35.8 °F 96% 29.58 in 2.5 mi NE 12.7 mph - N/A   Light Drizzle
2:15 PM 37.2 °F 30.0 °F 35.8 °F 95% 29.59 in 4.0 mi NE 10.4 mph 16.1 mph N/A   Overcast
2:35 PM 37.4 °F 30.3 °F 35.8 °F 94% 29.59 in 5.0 mi NE 10.4 mph - N/A   Overcast
2:55 PM 37.6 °F 29.1 °F 36.1 °F 95% 29.59 in 5.0 mi NE 13.8 mph - N/A   Overcast
3:15 PM 37.4 °F 30.3 °F 36.0 °F 95% 29.59 in 4.0 mi NE 10.4 mph - N/A   Overcast
3:35 PM 37.8 °F 29.4 °F 36.3 °F 95% 29.59 in 4.0 mi NE 13.8 mph 17.3 mph N/A   Overcast
3:55 PM 37.4 °F 30.3 °F 36.0 °F 95% 29.60 in 7.0 mi NE 10.4 mph 16.1 mph N/A   Overcast
4:15 PM 37.8 °F 29.8 °F 36.5 °F 95% 29.60 in 7.0 mi NE 12.7 mph 17.3 mph N/A   Overcast
4:35 PM 37.8 °F 29.8 °F 36.5 °F 95% 29.59 in 10.0 mi NE 12.7 mph - N/A   Overcast
5:35 PM 37.9 °F 30.0 °F 36.7 °F 95% 29.62 in 10.0 mi NE 12.7 mph - N/A Rain Rain
5:55 PM 37.8 °F 30.7 °F 36.5 °F 95% 29.62 in 7.0 mi NE 10.4 mph 16.1 mph N/A Rain Light Rain
6:15 PM 37.8 °F 30.7 °F 36.5 °F 95% 29.63 in 7.0 mi NE 10.4 mph - N/A Rain Rain
6:35 PM 37.8 °F 30.2 °F 36.5 °F 95% 29.63 in 10.0 mi NE 11.5 mph 19.6 mph N/A   Drizzle
6:55 PM 37.8 °F 31.3 °F 36.5 °F 95% 29.63 in 10.0 mi NE 9.2 mph - N/A Rain Rain
7:15 PM 37.8 °F 30.2 °F 36.5 °F 95% 29.64 in 10.0 mi NE 11.5 mph - N/A   Drizzle
7:35 PM 37.8 °F 31.3 °F 36.5 °F 95% 29.64 in 10.0 mi NE 9.2 mph - 0.01 in Rain Light Rain
7:55 PM 37.8 °F 31.3 °F 36.5 °F 95% 29.64 in 10.0 mi NE 9.2 mph - 0.01 in Rain Rain
8:15 PM 37.8 °F 30.7 °F 36.5 °F 95% 29.64 in 10.0 mi NE 10.4 mph - 0.01 in Rain Rain
8:35 PM 37.8 °F 30.7 °F 36.5 °F 95% 29.64 in 10.0 mi NE 10.4 mph - 0.01 in Rain Light Rain
9:35 PM 37.6 °F 31.0 °F 36.5 °F 96% 29.65 in 10.0 mi NE 9.2 mph - 0.01 in Rain Light Rain
9:55 PM 37.6 °F 31.0 °F 36.5 °F 96% 29.64 in 10.0 mi NE 9.2 mph - 0.02 in Rain Rain
10:15 PM 37.4 °F 31.4 °F 36.5 °F 97% 29.65 in 10.0 mi NE 8.1 mph - N/A Rain Rain
10:35 PM 37.4 °F 32.1 °F 36.5 °F 97% 29.65 in 10.0 mi NE 6.9 mph - 0.01 in   Drizzle
10:55 PM 37.4 °F 31.4 °F 36.5 °F 97% 29.64 in 10.0 mi NE 8.1 mph - 0.01 in   Drizzle
11:15 PM 37.4 °F 31.4 °F 36.3 °F 96% 29.64 in 7.0 mi NE 8.1 mph - 0.01 in Rain Light Rain
11:35 PM 37.4 °F 32.1 °F 36.5 °F 97% 29.63 in 7.0 mi NNE 6.9 mph - 0.01 in Rain Light Rain
11:55 PM 37.4 °F 32.8 °F 36.5 °F 97% 29.63 in 7.0 mi NE 5.8 mph - 0.01 in Rain Rain